Location: Lascellas
(42.0776°N, 0.0828°W)
Time: 14:03:26
(UTC+00:00)

Daily predictions for brighter satellites

Satellite Brightness Start Highest point End
(mag) Time Altitude Azimuth Time Altitude Azimuth Time Altitude Azimuth
COSMO-SKYMED 1 4.0 17:06:35 10° NE 17:09:34 18° E 17:12:31 10° SE
SeaSat 1 2.9 17:05:33 10° SE 17:10:10 41° NE 17:14:46 10° NNW
SL-08 R/B 4.5 17:05:13 10° N 17:11:21 80° E 17:17:33 10° S
Cosmos 1802 Rocket 4.4 17:05:53 10° NNW 17:12:11 72° W 17:18:21 10° S
BREEZE-M DEB (TANK) 4.2 17:07:48 10° WNW 17:12:27 82° SW 17:27:59 10° SE
Cosmos 1437 2.7 17:10:24 10° N 17:13:26 54° ENE 17:16:26 10° SSE
Geosat 4.1 17:08:40 10° NNE 17:13:40 61° ESE 17:18:37 10° SSW
Cosmos 1867 3.7 17:10:12 10° SSW 17:15:36 66° ESE 17:21:01 10° NE
Timation 2 Rocket 4.1 17:10:08 10° NNW 17:16:15 81° WSW 17:22:33 10° SSE
Cosmos 2061 Rocket 4.3 17:11:20 10° N 17:17:32 74° W 17:23:44 10° S
BREEZE-M DEB (TANK) 3.9 17:14:33 10° SW 17:18:03 69° SE 17:29:30 10° ENE
Cosmos 1825 2.1 17:14:41 10° N 17:18:29 85° E 17:22:16 10° S
NOAA 12 4.4 17:17:30 10° SE 17:22:34 47° ENE 17:27:40 10° N
Sich 1 4.4 17:20:01 10° NNE 17:23:04 18° ENE 17:26:07 10° ESE
Cosmos 2219 3.7 17:18:01 10° N 17:23:14 38° ENE 17:28:25 10° SE
GEOS 3 Rocket 4.0 17:19:43 10° NNE 17:24:54 68° NW 17:30:08 10° SW
Cosmos 2084 4.2 17:27:57 10° NNW 17:31:49 31° NE 17:35:36 10° ESE
ASTEX 1 4.3 17:30:27 10° N 17:35:19 53° W 17:40:09 10° SSW
Okean-O 2.6 17:31:16 10° SSE 17:35:37 61° ENE 17:40:01 10° N
Cosmos 2344 4.0 17:29:47 10° SW 17:37:13 61° NW 17:45:18 10° NNE
Meteor 2-2 Rocket 4.4 17:31:34 10° S 17:37:19 56° E 17:42:58 10° NNE
OE (NEXTSAT) 4.4 17:34:14 10° WNW 17:37:43 80° SSW 17:41:06 11° ESE
Cosmos 773 Rocket 4.0 17:33:02 10° S 17:38:03 57° ESE 17:43:08 10° NNE
YAOGAN 1 3.6 17:34:51 10° ESE 17:38:16 23° ENE 17:41:41 10° NNE
NOSS 7 (D) 4.4 17:37:56 10° SW 17:40:57 60° NW 17:43:33 12° NNE
ERBS 4.3 17:40:58 10° SSE 17:42:35 13° ESE 17:42:58 13° ESE
CSL-04 Rocket 4.3 17:38:32 10° SE 17:43:14 32° ENE 17:47:54 10° N
Cosmos 2227 Rocket 2.7 17:41:55 10° N 17:47:09 37° ENE 17:52:21 10° SE
Cosmos 2297 Rocket 2.6 17:42:32 10° N 17:47:50 40° ENE 17:53:07 10° SE
Cosmos 1538 Rocket 4.1 17:43:25 10° S 17:48:29 54° ESE 17:53:39 10° NNE
Cosmos 2221 2.8 17:44:24 10° SSW 17:48:40 70° W 17:53:00 10° N
NOSS 8 (A) 4.1 17:47:57 10° SSW 17:51:18 87° ESE 17:53:21 19° NE
Cosmos 1633 3.6 17:48:47 10° NNE 17:51:46 23° ENE 17:52:46 21° E
H-2A R/B 3.7 17:51:35 10° S 17:55:21 51° W 17:59:07 10° NNW
SL-24 R/B - RUBIN 2 4.5 17:50:05 10° NNW 17:56:29 77° NE 18:03:10 10° SE
Meteor 1-27 4.5 17:52:08 10° SSW 17:57:44 74° W 18:03:29 10° N
Cosmos 1862 4.3 17:54:36 10° NNE 17:57:44 24° ENE 17:57:44 24° ENE
SKYMED 2 3.6 17:53:39 10° NNE 17:57:57 58° E 18:02:14 10° S
Cosmos 2233 Rocket 4.3 17:52:45 10° N 17:59:04 74° W 18:05:20 10° S
PSLV R/B 2.9 17:56:42 10° WSW 17:59:12 50° SSE 17:59:47 39° ESE
YAOGAN 6 2.5 17:58:55 10° SSE 18:02:21 53° ENE 18:05:46 10° N
CZ-4 R/B 4.4 18:02:35 10° SSE 18:06:39 63° ENE 18:10:45 10° N
Cosmos 1356 Rocket 3.3 18:03:29 10° S 18:07:32 66° E 18:11:42 10° NNE
Cosmos 1238 Rocket 3.9 18:05:03 10° NNW 18:09:33 50° W 18:13:15 10° SSW
Lacrosse 4 Rocket 2.4 18:06:52 10° SSE 18:10:04 26° ESE 18:10:04 26° ESE
Genesis I 3.9 18:07:25 10° SW 18:11:21 53° NW 18:14:20 17° NNE
Cosmos 1805 Rocket 3.4 18:07:20 10° N 18:11:43 85° E 18:16:05 10° S
Cosmos 2082 4.2 18:07:31 10° N 18:12:41 36° ENE 18:14:50 27° E
BREEZE-M DEB (TANK) 2.7 18:10:32 10° SW 18:16:36 54° SSE 18:17:34 39° ESE
Cosmos 1464 Rocket 3.9 18:11:47 10° N 18:17:55 62° E 18:23:58 10° SSE
Cosmos 1891 Rocket 4.5 18:12:27 10° N 18:18:49 64° E 18:25:01 10° SSE
Cosmos 2278 4.4 18:14:07 10° SSE 18:19:00 31° ESE 18:19:26 30° E
Envisat 3.4 18:16:22 10° S 18:21:23 64° WSW 18:26:28 10° NNW
USA 215 3.7 18:21:35 29° E 18:24:27 44° NNE 18:30:35 10° NW
Cosmos 1697 Rocket 3.0 18:19:58 10° S 18:25:16 44° ESE 18:26:55 35° ENE
Cosmos 1072 Rocket 4.3 18:19:29 10° N 18:25:38 78° E 18:31:48 10° S
BREEZE-M DEB (TANK) 3.5 18:20:19 10° W 18:27:08 34° NNW 18:28:16 27° NNE
Meteor 2-20 Rocket 4.5 18:23:49 10° S 18:29:55 82° W 18:36:06 10° N
NOSS 2-3 (E) 4.4 18:26:43 10° S 18:29:57 33° SE 18:29:57 33° SE
USA 229 DEB 3.7 18:25:47 10° SW 18:32:19 79° NW 18:37:27 19° NNE
USA 229 3.7 18:25:55 10° SW 18:32:26 80° NW 18:37:30 19° NNE
CZ-4 R/B 1.7 18:29:08 10° S 18:33:19 69° WSW 18:37:27 10° NNW
NOSS 3-1 (A) 3.2 18:32:09 10° SSW 18:37:32 69° ESE 18:39:52 38° NE
ATLAS 5 CENTAUR R/B 2.3 18:32:08 10° NNW 18:38:01 79° NE 18:42:10 24° SE
NOSS 3-1 (C) 3.4 18:34:08 10° SW 18:39:36 75° NW 18:43:21 25° NNE
NOSS 2-3 (D) 4.5 18:35:53 10° S 18:38:46 34° SSE 18:38:46 34° SSE
Cosmos 1633 Rocket 2.9 18:39:00 10° N 18:43:26 79° E 18:45:36 29° SSE
COSMO-SKYMED 1 3.8 18:41:48 10° N 18:45:54 41° WNW 18:49:57 10° SW
Cosmos 2112 Rocket 4.4 18:41:39 10° S 18:45:36 43° SE 18:45:36 43° SE
Cosmos 1666 Rocket 3.8 18:47:47 10° NNW 18:52:09 67° W 18:56:27 10° S
Cosmos 1939 Rocket 4.4 18:55:01 28° N 18:55:01 28° N 18:57:02 10° N
NOAA 11 4.0 18:48:45 10° SSE 18:54:10 87° ENE 18:59:38 10° NNW
Cosmos 1680 Rocket 3.3 18:49:44 10° S 18:54:48 70° ESE 18:54:48 70° ESE
Cosmos 1328 Rocket 4.0 18:53:49 10° S 18:57:10 51° S 18:57:10 51° S
Cosmos 1607 4.3 18:54:15 10° NW 19:00:23 65° WSW 19:05:02 18° SSE
Sich 1 4.4 18:56:53 10° NNW 19:00:53 38° W 19:04:55 10° SSW
Ariane Rocket 3.3 19:05:22 54° N 19:05:22 54° N 19:09:21 10° N
Cosmos 1656 4.5 19:03:23 10° SW 19:08:45 48° WNW 19:11:50 24° N
Cosmos 2034 Rocket 4.2 19:06:19 10° NNW 19:12:38 70° W 19:18:56 10° S
YAOGAN 1 4.3 19:10:18 10° SSW 19:14:11 32° W 19:18:06 10° NNW
Cosmos 1980 Rocket 3.5 19:22:13 10° SSW 19:24:56 30° SSW 19:24:56 30° SSW
Tsikada Rocket 4.2 19:22:58 10° SSW 19:29:16 71° W 19:35:41 10° N
Cosmos 2227 Rocket 3.7 19:26:06 10° NW 19:31:07 33° WSW 19:36:07 10° SSW
Cosmos 2297 Rocket 3.9 19:26:51 10° NW 19:31:43 30° WSW 19:36:34 10° SSW
Lacrosse 4 Rocket 4.1 19:45:24 10° WSW 19:46:26 16° WSW 19:46:26 16° WSW
USA 215 3.9 20:08:57 49° WNW 20:08:57 49° WNW 20:13:48 10° NW
Cosmos 1697 Rocket 4.4 20:04:31 10° WSW 20:08:44 28° WNW 20:08:44 28° WNW
